Preview of NWS' New Version of Forecast
This preview is not operational and should not be used for support decisions.

Regional Weather Roundup (RWR)

Issued by National Weather Service (NWS)

                            
000
ASUS43 KLSX 200607
RWRMO 

WEATHER SUMMARY FOR MISSOURI
NATIONAL WEATHER SERVICE SPRINGFIELD MO
100 AM CDT WED MAR 20 2019

NOTE: "FAIR" INDICATES FEW OR NO CLOUDS BELOW 12,000 FEET WITH NO
       SIGNIFICANT WEATHER AND/OR OBSTRUCTIONS TO VISIBILITY.
       CURRENT SKY AND/OR WEATHER CONDITIONS ARE NOT AVAILABLE FOR
       CHILLICOTHE AND FARMINGTON.

MOZ001>031-035>038-043-044-053-054-200700-
...NORTHERN AND WESTERN MISSOURI...
  
CITY           SKY/WX    TMP DP  RH WIND       PRES   REMARKS
KANSAS CTY INT CLOUDY    43  41  93 N6        30.11S                  
6HR MIN TEMP:  43; 6HR MAX TEMP:  57; 6HR PCP:  0.16;                

KANSAS C DTWN  CLOUDY    46  41  82 N3        30.11S                  
6HR MIN TEMP:  45; 6HR MAX TEMP:  61; 6HR PCP:  0.03;                

LEE'S SUMMIT   CLOUDY    45  45 100 CALM      30.10F                  
6HR MIN TEMP:  45; 6HR MAX TEMP:  58; 6HR PCP:  0.06;                

ST JOSEPH      CLOUDY    43  32  65 N9        30.15S HAZE             
6HR MIN TEMP:  43; 6HR MAX TEMP:  49; 6HR PCP:  0.20;                

CHILLICOTHE      N/A     43  40  89 CALM      30.13S                  
6HR MIN TEMP:  43; 6HR MAX TEMP:  50; 6HR PCP:  0.02;                

     
$$
MOZ066>068-077>081-088>096-101>105-200700-
...SOUTHWEST MISSOURI...
  
CITY           SKY/WX    TMP DP  RH WIND       PRES   REMARKS
SPRINGFIELD    CLOUDY    53  34  48 S16       30.14F                  
6HR MIN TEMP:  53; 6HR MAX TEMP:  61;                                

JOPLIN         CLOUDY    52  45  77 CALM      30.16F                  
6HR MIN TEMP:  52; 6HR MAX TEMP:  65; 6HR PCP: TRACE;                

BRANSON        MOCLDY    50  32  50 S10       30.19F                  
               
$$
MOZ032>034-039>042-045>050-055>058-069>072-200700-
...CENTRAL MISSOURI...  
  
CITY           SKY/WX    TMP DP  RH WIND       PRES   REMARKS
COLUMBIA       CLOUDY    52  32  46 S16       30.11F                  
6HR MIN TEMP:  48; 6HR MAX TEMP:  52;                                

JEFFERSON CITY CLOUDY    54  32  43 S13       30.13F                  
6HR MIN TEMP:  47; 6HR MAX TEMP:  57;                                

ROLLA          CLOUDY    50  31  48 S13G24    30.16F                  
6HR MIN TEMP:  50; 6HR MAX TEMP:  56;                                

SEDALIA        CLOUDY    53  35  50 SW15      30.12S                  
6HR MIN TEMP:  49; 6HR MAX TEMP:  56;                                

WHITEMAN AFB   RAIN      51  41  68 W5        30.12R                  
WARRENSBURG    DRIZZLE   46  43  87 NW5       30.10F                  
OSAGE BEACH    CLOUDY    53  33  46 S14G26    30.14F                  
               
$$
MOZ051-052-059>065-200700-
...EAST CENTRAL MISSOURI...
  
CITY           SKY/WX    TMP DP  RH WIND       PRES   REMARKS
ST LOUIS INTL  CLOUDY    51  29  42 S16G25    30.19F                  
6HR MIN TEMP:  51; 6HR MAX TEMP:  54; 6HR PCP: TRACE;                

SPIRIT OF STL  MOCLDY    51  30  44 S9        30.17F                  
6HR MIN TEMP:  51; 6HR MAX TEMP:  56;                                

ST CHARLES     CLOUDY    50  33  52 S14       30.19S                  
6HR MIN TEMP:  46; 6HR MAX TEMP:  52;                                

                   
$$
MOZ072>076-082>087-097>100-106>115-200700-
...SOUTH CENTRAL AND SOUTHEAST MISSOURI...
  
CITY           SKY/WX    TMP DP  RH WIND       PRES   REMARKS
CAPE GIRARDEAU FAIR      41  33  73 S3        30.26F                  
6HR MIN TEMP:  39; 6HR MAX TEMP:  52;                                

FARMINGTON     CLOUDY    46  30  53 S8        30.23F                  
6HR MIN TEMP:  46; 6HR MAX TEMP:  54;                                

POPLAR BLUFF   FAIR      40  35  83 CALM      30.26F                  
6HR MIN TEMP:  39; 6HR MAX TEMP:  54;                                

WEST PLAINS    CLOUDY    48  31  51 S8        30.23F                  
6HR MIN TEMP:  48; 6HR MAX TEMP:  57;                                

                                       
$$